Home   Weather   Woodstock   Past weeks

Flag for USA Past Weather in Woodstock, New York, USA — Yesterday and Last 2 Weeks

Now
73 °F

Sunny.


Feels Like: 76 °F
Forecast: 57 / 76 °F
Wind: 14 mph from Southwest

Location: Dutchess County Airport

Current Time: Apr 29, 2017 at 11:41:02 am

Latest Report: Apr 29, 2017 at 10:53 am


Visibility: 10 mi

Pressure: 29.97 "Hg

Humidity: 62%

Dew Point: 59 °F

Location of WoodstockLocation

Past Weather in Woodstock — Graph

°F

Woodstock Temperature Yesterday

Maximum temperature yesterday: 84 °F (at 3:53 pm)
Minimum temperature yesterday: 60 °F (at 12:53 am)
Average temperature yesterday: 70 °F

High & Low Weather Summary for the Past Weeks

 TemperatureHumidityPressure
High84 °F (Apr 28, 3:53 pm)100% (Apr 17, 2:29 am)30.51 "Hg (Apr 17, 2:29 am)
Low34 °F (Apr 23, 5:53 am)21% (Apr 23, 6:53 pm)29.69 "Hg (Apr 16, 5:53 pm)
Average56 °F71%30.04 "Hg
* Reported Apr 14 9:53 am — Apr 29 9:53 am, Woodstock, Weather by CustomWeather, © 2017

Note: Actual official high and low records may vary slightly from our data, if they occured in-between our weather recording intervals... More about our weather records

Advertising

Woodstock Weather History for the Previous 24 Hours

Scroll right to see more
 ConditionsComfort  
Time TempWeatherWind HumidityBarometerVisibility
9:53 am
Sat, Apr 29
71 °FSunny.8 mph59%29.97 "Hg10 mi
8:53 am67 °FSunny.5 mph59%29.95 "Hg10 mi
7:53 am64 °FPassing clouds.No wind70%29.94 "Hg10 mi
6:53 am60 °FPassing clouds.No wind75%29.95 "Hg10 mi
5:53 am61 °FPassing clouds.3 mph67%29.96 "Hg10 mi
4:53 am61 °FClear.No wind75%29.96 "Hg10 mi
3:53 am62 °FPartly cloudy.3 mph78%29.99 "Hg10 mi
2:53 am64 °FPassing clouds.No wind65%29.99 "Hg10 mi
1:53 am65 °FPassing clouds.3 mph61%29.99 "Hg10 mi
12:53 am69 °FClear.5 mph44%29.99 "Hg10 mi
11:53 pm
Fri, Apr 28
71 °FClear.3 mph41%30.00 "Hg10 mi
10:53 pm72 °FClear.6 mph40%29.98 "Hg10 mi
9:53 pm73 °FClear.5 mph38%30.00 "Hg10 mi
8:53 pm76 °FClear.6 mph32%29.97 "Hg10 mi
7:53 pm78 °FClear.5 mph29%29.94 "Hg10 mi
6:53 pm82 °FSunny.8 mph22%29.91 "Hg10 mi
5:53 pm83 °FSunny.7 mph24%29.91 "Hg10 mi
4:53 pm84 °FSunny.9 mph23%29.90 "Hg10 mi
3:53 pm84 °FSunny.9 mph29%29.91 "Hg10 mi
2:53 pm82 °FSunny.10 mph38%29.92 "Hg10 mi
1:53 pm80 °FSunny.6 mph44%29.93 "Hg10 mi
12:53 pm77 °FSunny.7 mph54%29.94 "Hg10 mi
11:53 am73 °FPassing clouds.5 mph66%29.95 "Hg10 mi
11:04 am72 °FPartly sunny.6 mph68%29.96 "Hg10 mi
Weather by CustomWeather, © 2017

See weather overviewHow to use our weather pages